TimeEST,TemperatureF,Dew PointF,Humidity,Sea Level PressureIn,VisibilityMPH,Wind Direction,Wind SpeedMPH,Gust SpeedMPH,PrecipitationIn,Events,Conditions,WindDirDegrees,DateUTC
12:34 AM,23.0,19.4,86,29.94,8.0,Calm,Calm,-,N/A,,Mostly Cloudy,0,2013-02-13 05:34:00
12:54 AM,24.1,19.0,81,29.97,8.0,NNW,3.5,-,N/A,,Overcast,330,2013-02-13 05:54:00
1:54 AM,26.1,21.0,81,29.96,8.0,SSW,3.5,-,N/A,,Overcast,200,2013-02-13 06:54:00
2:46 AM,26.6,19.4,74,29.91,10.0,SSE,4.6,-,N/A,,Scattered Clouds,150,2013-02-13 07:46:00
2:54 AM,25.0,19.0,78,29.94,10.0,SSE,3.5,-,N/A,,Partly Cloudy,160,2013-02-13 07:54:00
3:54 AM,24.1,19.0,81,29.93,8.0,SSE,3.5,-,N/A,,Clear,160,2013-02-13 08:54:00
4:54 AM,21.9,18.0,85,29.91,7.0,Calm,Calm,-,N/A,,Clear,0,2013-02-13 09:54:00
5:54 AM,19.9,17.1,89,29.89,6.0,Calm,Calm,-,N/A,,Clear,0,2013-02-13 10:54:00
6:54 AM,21.0,18.0,88,29.87,5.0,South,4.6,-,N/A,,Clear,170,2013-02-13 11:54:00
7:54 AM,21.9,18.0,85,29.86,4.0,SSE,3.5,-,N/A,,Clear,160,2013-02-13 12:54:00
8:54 AM,26.1,21.0,81,29.85,7.0,SSE,5.8,-,N/A,,Clear,160,2013-02-13 13:54:00
9:54 AM,28.9,23.0,78,29.85,9.0,South,8.1,-,N/A,,Clear,180,2013-02-13 14:54:00
10:54 AM,33.1,25.0,72,29.85,9.0,South,9.2,-,N/A,,Clear,190,2013-02-13 15:54:00
11:54 AM,37.0,26.1,65,29.83,10.0,SSW,13.8,-,N/A,,Clear,200,2013-02-13 16:54:00
12:54 PM,39.9,26.1,58,29.81,10.0,SSW,11.5,-,N/A,,Clear,210,2013-02-13 17:54:00
1:54 PM,41.0,27.0,57,29.77,10.0,SW,13.8,-,N/A,,Clear,230,2013-02-13 18:54:00
2:54 PM,43.0,28.0,56,29.75,10.0,SW,15.0,21.9,N/A,,Clear,230,2013-02-13 19:54:00
3:54 PM,44.1,28.0,53,29.75,10.0,WSW,15.0,19.6,N/A,,Clear,240,2013-02-13 20:54:00
4:54 PM,44.1,28.0,53,29.75,10.0,WSW,10.4,-,N/A,,Clear,240,2013-02-13 21:54:00
5:54 PM,42.1,28.0,58,29.76,10.0,SW,8.1,-,N/A,,Clear,230,2013-02-13 22:54:00
6:54 PM,39.0,28.9,67,29.78,10.0,SW,8.1,-,N/A,,Clear,230,2013-02-13 23:54:00
7:54 PM,37.0,28.9,73,29.78,10.0,WSW,9.2,-,N/A,,Clear,240,2013-02-14 00:54:00
8:54 PM,35.1,28.9,78,29.79,10.0,SW,6.9,-,N/A,,Clear,220,2013-02-14 01:54:00
9:54 PM,33.1,28.0,82,29.80,10.0,SW,6.9,-,N/A,,Clear,230,2013-02-14 02:54:00
10:54 PM,33.1,28.0,82,29.79,9.0,SW,6.9,-,N/A,,Scattered Clouds,220,2013-02-14 03:54:00
11:54 PM,33.1,28.0,82,29.79,8.0,SW,6.9,-,N/A,,Scattered Clouds,220,2013-02-14 04:54:00